This demonstration page uses our WeatherBlox Daily Observations layout. Learn more.

Left ArrowRight Arrow

Hourly Observations for December 1, 2018

Temp ( °F °C ) Dew Point ( °F °C ) Humidity (%) Winds ( mph kmh ) Pressure ( in mb ) Visibility ( mi km ) Precip ( " mm )
12:20 am 00:20 Cloudy with Heavy Rain 37 2.8 35 1.7 93 93 ENE 14 22 29.56 1001 2 3 0.14 3.56
12:33 am 00:33 Cloudy with Light Rain 37 2.8 36 2.2 96 96 ENE 13 20 29.56 1001 2 3 0.17 4.32
12:53 am 00:53 Cloudy with Rain 37 2.8 36 2.2 96 96 ENE 15 24 29.49 999 2 3 0.24 6.10
1:06 am 01:06 Cloudy with Light Rain 37 3 36 2 93 93 NE 16 26 29.50 999 4 6 0.00 0.00
1:53 am 01:53 Cloudy with Rain 37 2.8 35 1.7 93 93 ENE 10 17 29.42 996 3 5 0.13 3.30
2:45 am 02:45 Cloudy with Rain 37 2.8 35 1.7 93 93 ENE 16 26 29.44 997 4 6 0.12 3.05
2:53 am 02:53 Cloudy with Rain 37 2.8 35 1.7 93 93 ENE 15 24 29.41 996 4 6 0.14 3.56
3:53 am 03:53 Cloudy with Light Rain 37 2.8 35 1.7 93 93 ENE 20 31 29.36 994 4 6 0.12 3.05
4:53 am 04:53 Cloudy with Rain 36 2.2 35 1.7 97 97 NE 25 41 29.33 993 3 5 0.12 3.05
5:16 am 05:16 Cloudy with Rain 36 2.2 34 1.1 93 93 NE 28 44 29.35 994 3 4 0.05 1.27
5:27 am 05:27 Cloudy with Rain 36 2 34 1 93 93 NE 26 43 29.35 994 3 5 0.00 0.00
5:50 am 05:50 Cloudy with Rain 36 2 34 1 93 93 NNE 24 39 29.32 993 3 4 0.00 0.00
5:53 am 05:53 Cloudy with Rain 35 1.7 34 1.1 96 96 NE 26 43 29.30 992 3 4 0.14 3.56
6:01 am 06:01 Cloudy with Rain 36 2.2 34 1.1 93 93 NNE 22 35 29.32 993 3 5 0.02 0.51
6:25 am 06:25 Windy with Snow Likely 35 1.7 33 0.6 93 93 NNE 23 37 29.32 993 2 3 0.06 1.52
6:39 am 06:39 Windy with Snow Likely 34 1 34 1 100 100 NNE 21 33 29.32 993 1 1 0.00 0.00
6:53 am 06:53 Cloudy with Snow 34 1.1 32 0 92 92 NNE 23 37 29.28 992 1 1 0.09 2.29
7:31 am 07:31 Windy with Snow Likely 34 1.1 33 0.6 97 97 NNE 20 31 29.32 993 1 2 0.03 0.76
7:53 am 07:53 Windy with Snow Likely 34 1.1 32 0 92 92 NNE 22 35 29.26 991 1 2 0.03 0.76
8:09 am 08:09 Windy with Snow Likely 34 1 34 1 100 100 NNE 22 35 29.32 993 1 1 0.00 0.00
8:53 am 08:53 Windy with Snow Likely 34 1.1 33 0.6 97 97 NNE 22 35 29.24 990 1 2 0.01 0.25
9:25 am 09:25 Windy with Snow Likely 34 1.1 33 0.6 97 97 NNE 24 39 29.29 992 1 1 0.00 0.03
9:53 am 09:53 Windy with Snow Likely 34 1.1 33 0.6 97 97 NNE 25 41 29.24 990 1 1 0.01 0.25
10:16 am 10:16 Windy with Snow Likely 34 1 34 1 100 100 NNE 28 44 29.29 992 1 2 0.00 0.00
10:53 am 10:53 Windy with Snow Likely 34 1.1 33 0.6 97 97 NE 24 39 29.25 991 1 2 0.00 0.03
11:02 am 11:02 Windy with Snow Likely 34 1 34 1 100 100 NE 25 41 29.32 993 1 1 0.00 0.00
11:37 am 11:37 Windy with Snow Likely 34 1.1 32 0 92 92 NNE 22 35 29.32 993 1 2 0.01 0.25
11:53 am 11:53 Cloudy with Light Wintry Mix 34 1.1 32 0 92 92 NE 22 35 29.25 990 1 2 0.01 0.25
12:16 pm 12:16 Windy with Snow Likely 34 1.1 32 0 92 92 NNE 21 33 29.32 993 1 1 0.00 0.03
12:53 pm 12:53 Windy with Snow Likely 34 1.1 32 0 92 92 NNE 20 31 29.25 991 1 1 0.01 0.25
1:04 pm 13:04 Windy with Snow Likely 34 1 32 0 93 93 NNE 22 35 29.32 993 1 2 0.00 0.00
1:27 pm 13:27 Windy with Snow Likely 33 0.6 32 0 96 96 NNE 21 33 29.32 993 1 1 0.00 0.03
1:53 pm 13:53 Windy with Snow Likely 33 0.6 32 0 96 96 NNE 22 35 29.27 991 1 1 0.00 0.03
2:53 pm 14:53 Windy with Snow Likely 33 0.6 32 0 96 96 NNE 23 37 29.29 992 1 2 0.00 0.03
3:24 pm 15:24 Cloudy with Light Wintry Mix 34 1 30 -1 87 87 N 23 37 29.32 993 2 3 0.00 0.00
3:37 pm 15:37 Windy with Snow Likely 33 0.6 31 -0.6 92 92 N 24 39 29.35 994 1 1 0.00 0.03
3:53 pm 15:53 Windy with Snow Likely 33 0.6 31 -0.6 92 92 N 26 43 29.32 993 2 3 0.00 0.03
3:58 pm 15:58 Cloudy with Light Wintry Mix 34 1 30 -1 87 87 N 24 39 29.35 994 3 5 0.00 0.00
4:04 pm 16:04 Cloudy with Light Wintry Mix 34 1 30 -1 87 87 N 26 43 29.35 994 5 8 0.00 0.00
4:10 pm 16:10 Windy with Snow Likely 34 1 30 -1 87 87 N 23 37 29.35 994 2 2 0.00 0.00
4:36 pm 16:36 Windy with Snow Likely 33 0.6 31 -0.6 92 92 N 24 39 29.38 995 1 2 0.00 0.03
4:53 pm 16:53 Cloudy with Light Wintry Mix 33 0.6 30 -1.1 89 89 N 26 43 29.36 994 6 10 0.00 0.03
5:53 pm 17:53 Cloudy with Light Freezing Rain 32 0 30 -1.1 92 92 N 29 46 29.39 995 4 6 0.00 0.03
6:21 pm 18:21 Windy with Snow Likely 33 0.6 30 -1.1 89 89 N 24 39 29.44 997 3 4 0.00 0.03
6:29 pm 18:29 Windy with Snow Likely 32 0 30 -1.1 92 92 N 26 43 29.47 998 1 2 0.00 0.03
6:40 pm 18:40 Windy with Snow Likely 32 0 30 -1 93 93 N 24 39 29.47 998 2 3 0.00 0.00
6:53 pm 18:53 Windy with Snow Likely 33 0.6 30 -1.1 89 89 N 25 41 29.41 996 2 3 0.00 0.03
7:09 pm 19:09 Windy with Snow Likely 33 0.6 30 -1.1 89 89 N 24 39 29.44 997 3 5 0.00 0.03
7:20 pm 19:20 Windy with Snow Likely 34 1 30 -1 87 87 N 28 44 29.44 997 2 3 0.00 0.00
7:30 pm 19:30 Cloudy with Snow 32 0 30 -1 93 93 N 23 37 29.47 998 1 1 0.00 0.00
7:40 pm 19:40 Windy with Snow Likely 32 0 30 -1 93 93 N 28 44 29.47 998 1 2 0.00 0.00
7:48 pm 19:48 Windy with Snow Likely 32 0 30 -1 93 93 N 28 44 29.47 998 1 1 0.00 0.00
7:53 pm 19:53 Windy with Snow Likely 32 0 30 -1.1 92 92 N 28 44 29.44 997 1 1 0.00 0.03
7:59 pm 19:59 Windy with Snow Likely 32 0 30 -1.1 92 92 N 28 44 29.50 999 1 1 0.00 0.03
8:02 pm 20:02 Windy with Snow Likely 32 0 30 -1 93 93 N 26 43 29.50 999 1 2 0.00 0.00
8:13 pm 20:13 Windy with Snow Likely 32 0 30 -1.1 92 92 N 26 43 29.50 999 1 2 0.00 0.03
8:21 pm 20:21 Windy with Snow Likely 32 0 30 -1.1 92 92 N 29 46 29.50 999 1 2 0.00 0.03
8:25 pm 20:25 Windy with Snow Likely 32 0 30 -1.1 92 92 N 28 44 29.50 999 2 3 0.00 0.03
8:34 pm 20:34 Windy with Snow Likely 34 1 30 -1 87 87 N 25 41 29.47 998 4 6 0.00 0.00
8:37 pm 20:37 Windy with Snow Likely 33 0.6 30 -1.1 89 89 N 28 44 29.50 999 4 6 0.00 0.03
8:47 pm 20:47 Windy with Snow Likely 32 0 30 -1 93 93 N 30 48 29.50 999 3 4 0.00 0.03
8:53 pm 20:53 Windy with Snow Likely 32 0 30 -1.1 92 92 N 29 46 29.46 998 2 3 0.00 0.03
9:05 pm 21:05 Windy with Snow Likely 33 0.6 30 -1.1 89 89 N 28 44 29.50 999 3 5 0.00 0.03
9:53 pm 21:53 Cloudy 33 0.6 29 -1.7 85 85 N 26 43 29.47 998 10 16 0.00 0.03
10:20 pm 22:20 Cloudy 34 1 28 -2 81 81 N 28 44 29.53 1000 10 16 0.00 0.00
10:53 pm 22:53 Cloudy 32 0 29 -1.7 88 88 N 26 43 29.52 1000 9 14 0.00 0.00
11:53 pm 23:53 Cloudy 32 0 29 -1.7 88 88 N 25 41 29.54 1000 9 14 0.00 0.00

Powered by AerisWeather